Year,Month,Day,Hour,Minute,Value (Times are PST for temperature in C)
2006,10,30,00,00,4.90
2006,10,30,00,01,4.80
2006,10,30,00,02,4.80
2006,10,30,00,03,4.80
2006,10,30,00,04,4.80
2006,10,30,00,05,4.80
2006,10,30,00,06,4.80
2006,10,30,00,07,4.90
2006,10,30,00,08,4.90
2006,10,30,00,09,4.90
2006,10,30,00,10,4.90
2006,10,30,00,11,4.90
2006,10,30,00,12,4.90
2006,10,30,00,13,4.90
2006,10,30,00,14,4.90
2006,10,30,00,15,4.90
2006,10,30,00,16,4.90
2006,10,30,00,17,4.90
2006,10,30,00,18,4.90
2006,10,30,00,19,4.90
2006,10,30,00,20,4.90
2006,10,30,00,21,4.90
2006,10,30,00,22,4.90
2006,10,30,00,23,4.80
2006,10,30,00,24,4.80
2006,10,30,00,25,4.80
2006,10,30,00,26,4.80
2006,10,30,00,27,4.80
2006,10,30,00,28,4.80
2006,10,30,00,29,4.80
2006,10,30,00,30,4.90
2006,10,30,00,31,4.90
2006,10,30,00,32,4.90
2006,10,30,00,33,4.90
2006,10,30,00,34,4.90
2006,10,30,00,35,4.90
2006,10,30,00,36,4.90
2006,10,30,00,37,4.90
2006,10,30,00,38,4.90
2006,10,30,00,39,4.80
2006,10,30,00,40,4.80
2006,10,30,00,41,4.80
2006,10,30,00,42,4.70
2006,10,30,00,43,4.70
2006,10,30,00,44,4.70
2006,10,30,00,45,4.60
2006,10,30,00,46,4.60
2006,10,30,00,47,4.70
2006,10,30,00,48,4.70
2006,10,30,00,49,4.70
2006,10,30,00,50,4.70
2006,10,30,00,51,4.70
2006,10,30,00,52,4.70
2006,10,30,00,53,4.70
2006,10,30,00,54,4.80
2006,10,30,00,55,4.70
2006,10,30,00,56,4.70
2006,10,30,00,57,4.70
2006,10,30,00,58,4.70
2006,10,30,00,59,4.60
2006,10,30,01,00,4.60
2006,10,30,01,01,4.60
2006,10,30,01,02,4.60
2006,10,30,01,03,4.60
2006,10,30,01,04,4.60
2006,10,30,01,05,4.60
2006,10,30,01,06,4.50
2006,10,30,01,07,4.50
2006,10,30,01,08,4.50
2006,10,30,01,09,4.60
2006,10,30,01,10,4.60
2006,10,30,01,11,4.60
2006,10,30,01,12,4.60
2006,10,30,01,13,4.60
2006,10,30,01,14,4.70
2006,10,30,01,15,4.70
2006,10,30,01,16,4.70
2006,10,30,01,17,4.70
2006,10,30,01,18,4.70
2006,10,30,01,19,4.70
2006,10,30,01,20,4.70
2006,10,30,01,21,4.70
2006,10,30,01,22,4.60
2006,10,30,01,23,4.60
2006,10,30,01,24,4.60
2006,10,30,01,25,4.60
2006,10,30,01,26,4.60
2006,10,30,01,27,4.60
2006,10,30,01,28,4.60
2006,10,30,01,29,4.50
2006,10,30,01,30,4.50
2006,10,30,01,31,4.50
2006,10,30,01,32,4.50
2006,10,30,01,33,4.50
2006,10,30,01,34,4.50
2006,10,30,01,35,4.60
2006,10,30,01,36,4.60
2006,10,30,01,37,4.60
2006,10,30,01,38,4.50
2006,10,30,01,39,4.50
2006,10,30,01,40,4.50
2006,10,30,01,41,4.50
2006,10,30,01,42,4.50
2006,10,30,01,43,4.50
2006,10,30,01,44,4.40
2006,10,30,01,45,4.40
2006,10,30,01,46,4.40
2006,10,30,01,47,4.40
2006,10,30,01,48,4.30
2006,10,30,01,49,4.30
2006,10,30,01,50,4.30
2006,10,30,01,51,4.30
2006,10,30,01,52,4.30
2006,10,30,01,53,4.30
2006,10,30,01,54,4.30
2006,10,30,01,55,4.30
2006,10,30,01,56,4.40
2006,10,30,01,57,4.40
2006,10,30,01,58,4.40
2006,10,30,01,59,4.30
2006,10,30,02,00,4.30
2006,10,30,02,01,4.30
2006,10,30,02,02,4.30
2006,10,30,02,03,4.30
2006,10,30,02,04,4.30
2006,10,30,02,05,4.20
2006,10,30,02,06,4.10
2006,10,30,02,07,4.10
2006,10,30,02,08,4.00
2006,10,30,02,09,4.00
2006,10,30,02,10,4.00
2006,10,30,02,11,4.00
2006,10,30,02,12,4.00
2006,10,30,02,13,4.00
2006,10,30,02,14,4.00
2006,10,30,02,15,4.00
2006,10,30,02,16,4.00
2006,10,30,02,17,4.00
2006,10,30,02,18,4.00
2006,10,30,02,19,3.90
2006,10,30,02,20,3.80
2006,10,30,02,21,3.80
2006,10,30,02,22,3.70
2006,10,30,02,23,3.60
2006,10,30,02,24,3.60
2006,10,30,02,25,3.60
2006,10,30,02,26,3.50
2006,10,30,02,27,3.50
2006,10,30,02,28,3.40
2006,10,30,02,29,3.30
2006,10,30,02,30,3.30
2006,10,30,02,31,3.30
2006,10,30,02,32,3.30
2006,10,30,02,33,3.30
2006,10,30,02,34,3.30
2006,10,30,02,35,3.20
2006,10,30,02,36,3.20
2006,10,30,02,37,3.20
2006,10,30,02,38,3.20
2006,10,30,02,39,3.20
2006,10,30,02,40,3.20
2006,10,30,02,41,3.20
2006,10,30,02,42,3.10
2006,10,30,02,43,3.10
2006,10,30,02,44,3.10
2006,10,30,02,45,3.00
2006,10,30,02,46,2.90
2006,10,30,02,47,2.90
2006,10,30,02,48,2.90
2006,10,30,02,49,2.90
2006,10,30,02,50,2.90
2006,10,30,02,51,2.80
2006,10,30,02,52,2.80
2006,10,30,02,53,2.70
2006,10,30,02,54,2.70
2006,10,30,02,55,2.70
2006,10,30,02,56,2.60
2006,10,30,02,57,2.50
2006,10,30,02,58,2.50
2006,10,30,02,59,2.40
2006,10,30,03,00,2.40
2006,10,30,03,01,2.30
2006,10,30,03,02,2.20
2006,10,30,03,03,2.20
2006,10,30,03,04,2.20
2006,10,30,03,05,2.10
2006,10,30,03,06,2.00
2006,10,30,03,07,1.90
2006,10,30,03,08,1.90
2006,10,30,03,09,1.80
2006,10,30,03,10,1.70
2006,10,30,03,11,1.60
2006,10,30,03,12,1.60
2006,10,30,03,13,1.50
2006,10,30,03,14,1.40
2006,10,30,03,15,1.30
2006,10,30,03,16,1.30
2006,10,30,03,17,1.20
2006,10,30,03,18,1.20
2006,10,30,03,19,1.10
2006,10,30,03,20,1.00
2006,10,30,03,21,0.90
2006,10,30,03,22,0.90
2006,10,30,03,23,0.90
2006,10,30,03,24,0.90
2006,10,30,03,25,0.80
2006,10,30,03,26,0.80
2006,10,30,03,27,0.80
2006,10,30,03,28,0.80
2006,10,30,03,29,0.80
2006,10,30,03,30,0.80
2006,10,30,03,31,0.70
2006,10,30,03,32,0.70
2006,10,30,03,33,0.70
2006,10,30,03,34,0.70
2006,10,30,03,35,0.70
2006,10,30,03,36,0.70
2006,10,30,03,37,0.70
2006,10,30,03,38,0.60
2006,10,30,03,39,0.60
2006,10,30,03,40,0.60
2006,10,30,03,41,0.60
2006,10,30,03,42,0.60
2006,10,30,03,43,0.60
2006,10,30,03,44,0.60
2006,10,30,03,45,0.60
2006,10,30,03,46,0.60
2006,10,30,03,47,0.50
2006,10,30,03,48,0.40
2006,10,30,03,49,0.40
2006,10,30,03,50,0.40
2006,10,30,03,51,0.40
2006,10,30,03,52,0.40
2006,10,30,03,53,0.40
2006,10,30,03,54,0.40
2006,10,30,03,55,0.30
2006,10,30,03,56,0.30
2006,10,30,03,57,0.30
2006,10,30,03,58,0.30
2006,10,30,03,59,0.20
2006,10,30,04,00,0.20
2006,10,30,04,01,0.20
2006,10,30,04,02,0.20
2006,10,30,04,03,0.20
2006,10,30,04,04,0.20
2006,10,30,04,05,0.20
2006,10,30,04,06,0.20
2006,10,30,04,07,0.20
2006,10,30,04,08,0.20
2006,10,30,04,09,0.20
2006,10,30,04,10,0.20
2006,10,30,04,11,0.20
2006,10,30,04,12,0.20
2006,10,30,04,13,0.20
2006,10,30,04,14,0.20
2006,10,30,04,15,0.20
2006,10,30,04,16,0.20
2006,10,30,04,17,0.20
2006,10,30,04,18,0.20
2006,10,30,04,19,0.20
2006,10,30,04,20,0.20
2006,10,30,04,21,0.20
2006,10,30,04,22,0.20
2006,10,30,04,23,0.30
2006,10,30,04,24,0.30
2006,10,30,04,25,0.40
2006,10,30,04,26,0.40
2006,10,30,04,27,0.40
2006,10,30,04,28,0.40
2006,10,30,04,29,0.40
2006,10,30,04,30,0.40
2006,10,30,04,31,0.40
2006,10,30,04,32,0.40
2006,10,30,04,33,0.40
2006,10,30,04,34,0.40
2006,10,30,04,35,0.40
2006,10,30,04,36,0.50
2006,10,30,04,37,0.50
2006,10,30,04,38,0.60
2006,10,30,04,39,0.90
2006,10,30,04,40,1.10
2006,10,30,04,41,1.30
2006,10,30,04,42,1.60
2006,10,30,04,43,1.80
2006,10,30,04,44,2.00
2006,10,30,04,45,2.20
2006,10,30,04,46,2.40
2006,10,30,04,47,2.50
2006,10,30,04,48,2.60
2006,10,30,04,49,2.70
2006,10,30,04,50,2.70
2006,10,30,04,51,2.70
2006,10,30,04,52,2.70
2006,10,30,04,53,2.90
2006,10,30,04,54,2.90
2006,10,30,04,55,3.00
2006,10,30,04,56,3.10
2006,10,30,04,57,3.20
2006,10,30,04,58,3.20
2006,10,30,04,59,3.30
2006,10,30,05,00,3.30
2006,10,30,05,01,3.30
2006,10,30,05,02,3.40
2006,10,30,05,03,3.40
2006,10,30,05,04,3.40
2006,10,30,05,05,3.40
2006,10,30,05,06,3.40
2006,10,30,05,07,3.40
2006,10,30,05,08,3.40
2006,10,30,05,09,3.40
2006,10,30,05,10,3.40
2006,10,30,05,11,3.50
2006,10,30,05,12,3.50
2006,10,30,05,13,3.60
2006,10,30,05,14,3.60
2006,10,30,05,15,3.60
2006,10,30,05,16,3.60
2006,10,30,05,17,3.60
2006,10,30,05,18,3.60
2006,10,30,05,19,3.60
2006,10,30,05,20,3.50
2006,10,30,05,21,3.50
2006,10,30,05,22,3.50
2006,10,30,05,23,3.50
2006,10,30,05,24,3.50
2006,10,30,05,25,3.60
2006,10,30,05,26,3.60
2006,10,30,05,27,3.60
2006,10,30,05,28,3.50
2006,10,30,05,29,3.40
2006,10,30,05,30,3.40
2006,10,30,05,31,3.30
2006,10,30,05,32,3.30
2006,10,30,05,33,3.30
2006,10,30,05,34,3.30
2006,10,30,05,35,3.30
2006,10,30,05,36,3.30
2006,10,30,05,37,3.30
2006,10,30,05,38,3.30
2006,10,30,05,39,3.30
2006,10,30,05,40,3.30
2006,10,30,05,41,3.30
2006,10,30,05,42,3.30
2006,10,30,05,43,3.30
2006,10,30,05,44,3.30
2006,10,30,05,45,3.30
2006,10,30,05,46,3.30
2006,10,30,05,47,3.30
2006,10,30,05,48,3.30
2006,10,30,05,49,3.30
2006,10,30,05,50,3.20
2006,10,30,05,51,3.20
2006,10,30,05,52,3.20
2006,10,30,05,53,3.20
2006,10,30,05,54,3.10
2006,10,30,05,55,3.10
2006,10,30,05,56,3.10
2006,10,30,05,57,3.10
2006,10,30,05,58,3.10
2006,10,30,05,59,3.10
2006,10,30,06,00,3.10
2006,10,30,06,01,3.10
2006,10,30,06,02,3.00
2006,10,30,06,03,2.90
2006,10,30,06,04,2.90
2006,10,30,06,05,2.90
2006,10,30,06,06,2.90
2006,10,30,06,07,2.90
2006,10,30,06,08,2.90
2006,10,30,06,09,2.80
2006,10,30,06,10,2.80
2006,10,30,06,11,2.80
2006,10,30,06,12,2.80
2006,10,30,06,13,2.80
2006,10,30,06,14,2.80
2006,10,30,06,15,2.80
2006,10,30,06,16,2.80
2006,10,30,06,17,2.80
2006,10,30,06,18,2.80
2006,10,30,06,19,2.90
2006,10,30,06,20,2.90
2006,10,30,06,21,2.90
2006,10,30,06,22,2.90
2006,10,30,06,23,2.90
2006,10,30,06,24,2.80
2006,10,30,06,25,2.80
2006,10,30,06,26,2.80
2006,10,30,06,27,2.80
2006,10,30,06,28,2.90
2006,10,30,06,29,2.90
2006,10,30,06,30,2.90
2006,10,30,06,31,2.90
2006,10,30,06,32,2.90
2006,10,30,06,33,2.90
2006,10,30,06,34,2.90
2006,10,30,06,35,2.90
2006,10,30,06,36,2.90
2006,10,30,06,37,2.90
2006,10,30,06,38,2.90
2006,10,30,06,39,2.90
2006,10,30,06,40,2.90
2006,10,30,06,41,2.90
2006,10,30,06,42,2.90
2006,10,30,06,43,2.90
2006,10,30,06,44,2.90
2006,10,30,06,45,2.80
2006,10,30,06,46,2.80
2006,10,30,06,47,2.70
2006,10,30,06,48,2.70
2006,10,30,06,49,2.70
2006,10,30,06,50,2.70
2006,10,30,06,51,2.70
2006,10,30,06,52,2.70
2006,10,30,06,53,2.70
2006,10,30,06,54,2.70
2006,10,30,06,55,2.70
2006,10,30,06,56,2.70
2006,10,30,06,57,2.70
2006,10,30,06,58,2.70
2006,10,30,06,59,2.70
2006,10,30,07,00,2.70
2006,10,30,07,01,2.70
2006,10,30,07,02,2.70
2006,10,30,07,03,2.60
2006,10,30,07,04,2.60
2006,10,30,07,05,2.60
2006,10,30,07,06,2.60
2006,10,30,07,07,2.60
2006,10,30,07,08,2.60
2006,10,30,07,09,2.60
2006,10,30,07,10,2.60
2006,10,30,07,11,2.60
2006,10,30,07,12,2.60
2006,10,30,07,13,2.60
2006,10,30,07,14,2.60
2006,10,30,07,15,2.60
2006,10,30,07,16,2.60
2006,10,30,07,17,2.60
2006,10,30,07,18,2.70
2006,10,30,07,19,2.70
2006,10,30,07,20,2.70
2006,10,30,07,21,2.90
2006,10,30,07,22,3.00
2006,10,30,07,23,3.10
2006,10,30,07,24,3.20
2006,10,30,07,25,3.30
2006,10,30,07,26,3.30
2006,10,30,07,27,3.30
2006,10,30,07,28,3.40
2006,10,30,07,29,3.50
2006,10,30,07,30,3.50
2006,10,30,07,31,3.60
2006,10,30,07,32,3.70
2006,10,30,07,33,3.80
2006,10,30,07,34,3.80
2006,10,30,07,35,3.80
2006,10,30,07,36,3.90
2006,10,30,07,37,3.90
2006,10,30,07,38,3.90
2006,10,30,07,39,4.00
2006,10,30,07,40,4.00
2006,10,30,07,41,4.00
2006,10,30,07,42,4.00
2006,10,30,07,43,4.10
2006,10,30,07,44,4.10
2006,10,30,07,45,4.10
2006,10,30,07,46,4.10
2006,10,30,07,47,4.10
2006,10,30,07,48,4.10
2006,10,30,07,49,4.10
2006,10,30,07,50,4.10
2006,10,30,07,51,4.10
2006,10,30,07,52,4.20
2006,10,30,07,53,4.20
2006,10,30,07,54,4.20
2006,10,30,07,55,4.20
2006,10,30,07,56,4.20
2006,10,30,07,57,4.20
2006,10,30,07,58,4.20
2006,10,30,07,59,4.20
2006,10,30,08,00,4.20
2006,10,30,08,01,4.20
2006,10,30,08,02,4.30
2006,10,30,08,03,4.30
2006,10,30,08,04,4.40
2006,10,30,08,05,4.40
2006,10,30,08,06,4.40
2006,10,30,08,07,4.50
2006,10,30,08,08,4.50
2006,10,30,08,09,4.60
2006,10,30,08,10,4.60
2006,10,30,08,11,4.60
2006,10,30,08,12,4.60
2006,10,30,08,13,4.60
2006,10,30,08,14,4.60
2006,10,30,08,15,4.60
2006,10,30,08,16,4.60
2006,10,30,08,17,4.60
2006,10,30,08,18,4.60
2006,10,30,08,19,4.60
2006,10,30,08,20,4.60
2006,10,30,08,21,4.60
2006,10,30,08,22,4.60
2006,10,30,08,23,4.60
2006,10,30,08,24,4.60
2006,10,30,08,25,4.60
2006,10,30,08,26,4.60
2006,10,30,08,27,4.60
2006,10,30,08,28,4.70
2006,10,30,08,29,4.70
2006,10,30,08,30,4.70
2006,10,30,08,31,4.80
2006,10,30,08,32,4.90
2006,10,30,08,33,4.90
2006,10,30,08,34,4.90
2006,10,30,08,35,5.10
2006,10,30,08,36,5.10
2006,10,30,08,37,5.10
2006,10,30,08,38,5.10
2006,10,30,08,39,5.10
2006,10,30,08,40,5.10
2006,10,30,08,41,5.10
2006,10,30,08,42,5.10
2006,10,30,08,43,5.20
2006,10,30,08,44,5.10
2006,10,30,08,45,5.10
2006,10,30,08,46,5.10
2006,10,30,08,47,5.10
2006,10,30,08,48,5.10
2006,10,30,08,49,5.10
2006,10,30,08,50,5.10
2006,10,30,08,51,5.20
2006,10,30,08,52,5.20
2006,10,30,08,53,5.20
2006,10,30,08,54,5.20
2006,10,30,08,55,5.30
2006,10,30,08,56,5.30
2006,10,30,08,57,5.30
2006,10,30,08,58,5.40
2006,10,30,08,59,5.50
2006,10,30,09,00,5.50
2006,10,30,09,01,5.60
2006,10,30,09,02,5.60
2006,10,30,09,03,5.60
2006,10,30,09,04,5.60
2006,10,30,09,05,5.50
2006,10,30,09,06,5.50
2006,10,30,09,07,5.50
2006,10,30,09,08,5.40
2006,10,30,09,09,5.40
2006,10,30,09,10,5.30
2006,10,30,09,11,5.30
2006,10,30,09,12,5.30
2006,10,30,09,13,5.30
2006,10,30,09,14,5.30
2006,10,30,09,15,5.30
2006,10,30,09,16,5.30
2006,10,30,09,17,5.30
2006,10,30,09,18,5.20
2006,10,30,09,19,5.10
2006,10,30,09,20,5.10
2006,10,30,09,21,5.10
2006,10,30,09,22,5.10
2006,10,30,09,23,5.00
2006,10,30,09,24,4.90
2006,10,30,09,25,4.90
2006,10,30,09,26,4.90
2006,10,30,09,27,5.00
2006,10,30,09,28,5.10
2006,10,30,09,29,5.20
2006,10,30,09,30,5.30
2006,10,30,09,31,5.30
2006,10,30,09,32,5.40
2006,10,30,09,33,5.40
2006,10,30,09,34,5.40
2006,10,30,09,35,5.40
2006,10,30,09,36,5.40
2006,10,30,09,37,5.50
2006,10,30,09,38,5.50
2006,10,30,09,39,5.40
2006,10,30,09,40,5.40
2006,10,30,09,41,5.40
2006,10,30,09,42,5.40
2006,10,30,09,43,5.40
2006,10,30,09,44,5.50
2006,10,30,09,45,5.60
2006,10,30,09,46,5.70
2006,10,30,09,47,5.80
2006,10,30,09,48,5.70
2006,10,30,09,49,5.70
2006,10,30,09,50,5.70
2006,10,30,09,51,5.70
2006,10,30,09,52,5.60
2006,10,30,09,53,5.50
2006,10,30,09,54,5.40
2006,10,30,09,55,5.40
2006,10,30,09,56,5.30
2006,10,30,09,57,5.40
2006,10,30,09,58,5.50
2006,10,30,09,59,5.60
2006,10,30,10,00,5.60
2006,10,30,10,01,5.50
2006,10,30,10,02,5.60
2006,10,30,10,03,5.50
2006,10,30,10,04,5.40
2006,10,30,10,05,5.40
2006,10,30,10,06,5.40
2006,10,30,10,07,5.40
2006,10,30,10,08,5.40
2006,10,30,10,09,5.40
2006,10,30,10,10,5.30
2006,10,30,10,11,5.30
2006,10,30,10,12,5.30
2006,10,30,10,13,5.30
2006,10,30,10,14,5.30
2006,10,30,10,15,5.30
2006,10,30,10,16,5.30
2006,10,30,10,17,5.30
2006,10,30,10,18,5.20
2006,10,30,10,19,5.10
2006,10,30,10,20,5.20
2006,10,30,10,21,5.20
2006,10,30,10,22,5.20
2006,10,30,10,23,5.20
2006,10,30,10,24,5.30
2006,10,30,10,25,5.30
2006,10,30,10,26,5.40
2006,10,30,10,27,5.50
2006,10,30,10,28,5.50
2006,10,30,10,29,5.60
2006,10,30,10,30,5.70
2006,10,30,10,31,5.70
2006,10,30,10,32,5.70
2006,10,30,10,33,5.80
2006,10,30,10,34,5.80
2006,10,30,10,35,5.80
2006,10,30,10,36,5.70
2006,10,30,10,37,5.70
2006,10,30,10,38,5.80
2006,10,30,10,39,5.80
2006,10,30,10,40,5.90
2006,10,30,10,41,6.00
2006,10,30,10,42,6.00
2006,10,30,10,43,6.10
2006,10,30,10,44,6.10
2006,10,30,10,45,6.10
2006,10,30,10,46,6.10
2006,10,30,10,47,6.10
2006,10,30,10,48,6.20
2006,10,30,10,49,6.20
2006,10,30,10,50,6.20
2006,10,30,10,51,6.20
2006,10,30,10,52,6.20
2006,10,30,10,53,6.20
2006,10,30,10,54,6.10
2006,10,30,10,55,6.10
2006,10,30,10,56,6.20
2006,10,30,10,57,6.10
2006,10,30,10,58,6.10
2006,10,30,10,59,6.10
2006,10,30,11,00,6.00
2006,10,30,11,01,5.90
2006,10,30,11,02,5.90
2006,10,30,11,03,6.00
2006,10,30,11,04,6.10
2006,10,30,11,05,6.30
2006,10,30,11,06,6.40
2006,10,30,11,07,6.40
2006,10,30,11,08,6.40
2006,10,30,11,09,6.60
2006,10,30,11,10,6.60
2006,10,30,11,11,6.60
2006,10,30,11,12,6.70
2006,10,30,11,13,6.70
2006,10,30,11,14,6.80
2006,10,30,11,15,6.80
2006,10,30,11,16,6.80
2006,10,30,11,17,6.80
2006,10,30,11,18,6.70
2006,10,30,11,19,6.70
2006,10,30,11,20,6.60
2006,10,30,11,21,6.60
2006,10,30,11,22,6.60
2006,10,30,11,23,6.60
2006,10,30,11,24,6.70
2006,10,30,11,25,6.60
2006,10,30,11,26,6.40
2006,10,30,11,27,6.40
2006,10,30,11,28,6.40
2006,10,30,11,29,6.40
2006,10,30,11,30,6.30
2006,10,30,11,31,6.30
2006,10,30,11,32,6.30
2006,10,30,11,33,6.30
2006,10,30,11,34,6.20
2006,10,30,11,35,6.30
2006,10,30,11,36,6.30
2006,10,30,11,37,6.40
2006,10,30,11,38,6.50
2006,10,30,11,39,6.60
2006,10,30,11,40,6.60
2006,10,30,11,41,6.60
2006,10,30,11,42,6.50
2006,10,30,11,43,6.40
2006,10,30,11,44,6.40
2006,10,30,11,45,6.40
2006,10,30,11,46,6.40
2006,10,30,11,47,6.50
2006,10,30,11,48,6.60
2006,10,30,11,49,6.60
2006,10,30,11,50,6.60
2006,10,30,11,51,6.70
2006,10,30,11,52,6.70
2006,10,30,11,53,6.80
2006,10,30,11,54,6.70
2006,10,30,11,55,6.60
2006,10,30,11,56,6.70
2006,10,30,11,57,6.70
2006,10,30,11,58,6.80
2006,10,30,11,59,6.80
2006,10,30,12,00,6.90
2006,10,30,12,01,7.00
2006,10,30,12,02,7.00
2006,10,30,12,03,7.10
2006,10,30,12,04,7.00
2006,10,30,12,05,7.00
2006,10,30,12,06,7.00
2006,10,30,12,07,7.00
2006,10,30,12,08,6.90
2006,10,30,12,09,6.80
2006,10,30,12,10,6.80
2006,10,30,12,11,6.80
2006,10,30,12,12,6.80
2006,10,30,12,13,6.80
2006,10,30,12,14,6.70
2006,10,30,12,15,6.60
2006,10,30,12,16,6.50
2006,10,30,12,17,6.40
2006,10,30,12,18,6.30
2006,10,30,12,19,6.20
2006,10,30,12,20,6.10
2006,10,30,12,21,6.10
2006,10,30,12,22,6.10
2006,10,30,12,23,6.20
2006,10,30,12,24,6.20
2006,10,30,12,25,6.30
2006,10,30,12,26,6.40
2006,10,30,12,27,6.40
2006,10,30,12,28,6.40
2006,10,30,12,29,6.40
2006,10,30,12,30,6.40
2006,10,30,12,31,6.60
2006,10,30,12,32,6.60
2006,10,30,12,33,6.60
2006,10,30,12,34,6.60
2006,10,30,12,35,6.70
2006,10,30,12,36,6.70
2006,10,30,12,37,6.70
2006,10,30,12,38,6.70
2006,10,30,12,39,6.70
2006,10,30,12,40,6.80
2006,10,30,12,41,6.80
2006,10,30,12,42,6.80
2006,10,30,12,43,6.80
2006,10,30,12,44,6.80
2006,10,30,12,45,6.90
2006,10,30,12,46,7.00
2006,10,30,12,47,7.10
2006,10,30,12,48,7.10
2006,10,30,12,49,7.00
2006,10,30,12,50,7.00
2006,10,30,12,51,7.00
2006,10,30,12,52,7.00
2006,10,30,12,53,7.10
2006,10,30,12,54,7.00
2006,10,30,12,55,7.00
2006,10,30,12,56,7.00
2006,10,30,12,57,7.00
2006,10,30,12,58,7.00
2006,10,30,12,59,7.00
2006,10,30,13,00,7.00
2006,10,30,13,01,7.00
2006,10,30,13,02,6.90
2006,10,30,13,03,6.80
2006,10,30,13,04,6.80
2006,10,30,13,05,6.90
2006,10,30,13,06,7.00
2006,10,30,13,07,7.10
2006,10,30,13,08,7.10
2006,10,30,13,09,7.20
2006,10,30,13,10,7.30
2006,10,30,13,11,7.20
2006,10,30,13,12,7.20
2006,10,30,13,13,7.20
2006,10,30,13,14,7.20
2006,10,30,13,15,7.30
2006,10,30,13,16,7.30
2006,10,30,13,17,7.40
2006,10,30,13,18,7.40
2006,10,30,13,19,7.40
2006,10,30,13,20,7.40
2006,10,30,13,21,7.40
2006,10,30,13,22,7.50
2006,10,30,13,23,7.50
2006,10,30,13,24,7.40
2006,10,30,13,25,7.30
2006,10,30,13,26,7.30
2006,10,30,13,27,7.40
2006,10,30,13,28,7.40
2006,10,30,13,29,7.40
2006,10,30,13,30,7.40
2006,10,30,13,31,7.30
2006,10,30,13,32,7.20
2006,10,30,13,33,7.20
2006,10,30,13,34,7.20
2006,10,30,13,35,7.20
2006,10,30,13,36,7.10
2006,10,30,13,37,7.00
2006,10,30,13,38,6.90
2006,10,30,13,39,6.90
2006,10,30,13,40,7.00
2006,10,30,13,41,7.00
2006,10,30,13,42,7.00
2006,10,30,13,43,7.10
2006,10,30,13,44,7.10
2006,10,30,13,45,7.00
2006,10,30,13,46,6.90
2006,10,30,13,47,6.90
2006,10,30,13,48,6.90
2006,10,30,13,49,7.00
2006,10,30,13,50,7.00
2006,10,30,13,51,7.00
2006,10,30,13,52,7.00
2006,10,30,13,53,7.10
2006,10,30,13,54,7.10
2006,10,30,13,55,7.10
2006,10,30,13,56,7.10
2006,10,30,13,57,7.10
2006,10,30,13,58,7.10
2006,10,30,13,59,7.00
2006,10,30,14,00,7.00
2006,10,30,14,01,7.00
2006,10,30,14,02,7.00
2006,10,30,14,03,7.20
2006,10,30,14,04,7.30
2006,10,30,14,05,7.30
2006,10,30,14,06,7.40
2006,10,30,14,07,7.40
2006,10,30,14,08,7.30
2006,10,30,14,09,7.20
2006,10,30,14,10,7.10
2006,10,30,14,11,7.10
2006,10,30,14,12,7.20
2006,10,30,14,13,7.20
2006,10,30,14,14,7.20
2006,10,30,14,15,7.30
2006,10,30,14,16,7.30
2006,10,30,14,17,7.30
2006,10,30,14,18,7.30
2006,10,30,14,19,7.30
2006,10,30,14,20,7.30
2006,10,30,14,21,7.30
2006,10,30,14,22,7.30
2006,10,30,14,23,7.30
2006,10,30,14,24,7.40
2006,10,30,14,25,7.40
2006,10,30,14,26,7.40
2006,10,30,14,27,7.30
2006,10,30,14,28,7.30
2006,10,30,14,29,7.30
2006,10,30,14,30,7.30
2006,10,30,14,31,7.20
2006,10,30,14,32,7.10
2006,10,30,14,33,7.00
2006,10,30,14,34,6.80
2006,10,30,14,35,6.80
2006,10,30,14,36,6.80
2006,10,30,14,37,6.80
2006,10,30,14,38,6.90
2006,10,30,14,39,7.00
2006,10,30,14,40,7.10
2006,10,30,14,41,7.20
2006,10,30,14,42,7.20
2006,10,30,14,43,7.20
2006,10,30,14,44,7.20
2006,10,30,14,45,7.10
2006,10,30,14,46,7.00
2006,10,30,14,47,7.00
2006,10,30,14,48,7.00
2006,10,30,14,49,6.90
2006,10,30,14,50,6.90
2006,10,30,14,51,6.90
2006,10,30,14,52,6.90
2006,10,30,14,53,6.90
2006,10,30,14,54,7.00
2006,10,30,14,55,7.10
2006,10,30,14,56,7.10
2006,10,30,14,57,7.10
2006,10,30,14,58,7.20
2006,10,30,14,59,7.20
2006,10,30,15,00,7.10
2006,10,30,15,01,7.00
2006,10,30,15,02,6.90
2006,10,30,15,03,6.80
2006,10,30,15,04,6.70
2006,10,30,15,05,6.60
2006,10,30,15,06,6.60
2006,10,30,15,07,6.60
2006,10,30,15,08,6.70
2006,10,30,15,09,6.70
2006,10,30,15,10,6.80
2006,10,30,15,11,6.80
2006,10,30,15,12,6.80
2006,10,30,15,13,6.80
2006,10,30,15,14,6.80
2006,10,30,15,15,6.80
2006,10,30,15,16,6.80
2006,10,30,15,17,6.90
2006,10,30,15,18,6.90
2006,10,30,15,19,6.90
2006,10,30,15,20,6.90
2006,10,30,15,21,6.80
2006,10,30,15,22,6.80
2006,10,30,15,23,6.80
2006,10,30,15,24,6.90
2006,10,30,15,25,6.90
2006,10,30,15,26,6.90
2006,10,30,15,27,6.90
2006,10,30,15,28,6.80
2006,10,30,15,29,6.80
2006,10,30,15,30,6.80
2006,10,30,15,31,6.80
2006,10,30,15,32,6.80
2006,10,30,15,33,6.80
2006,10,30,15,34,6.90
2006,10,30,15,35,6.90
2006,10,30,15,36,7.00
2006,10,30,15,37,7.00
2006,10,30,15,38,7.00
2006,10,30,15,39,7.10
2006,10,30,15,40,7.00
2006,10,30,15,41,7.00
2006,10,30,15,42,6.90
2006,10,30,15,43,6.90
2006,10,30,15,44,6.80
2006,10,30,15,45,6.80
2006,10,30,15,46,6.80
2006,10,30,15,47,6.80
2006,10,30,15,48,6.80
2006,10,30,15,49,6.80
2006,10,30,15,50,6.80
2006,10,30,15,51,6.70
2006,10,30,15,52,6.70
2006,10,30,15,53,6.70
2006,10,30,15,54,6.70
2006,10,30,15,55,6.70
2006,10,30,15,56,6.70
2006,10,30,15,57,6.70
2006,10,30,15,58,6.80
2006,10,30,15,59,6.80
2006,10,30,16,00,6.80
2006,10,30,16,01,6.80
2006,10,30,16,02,6.90
2006,10,30,16,03,6.90
2006,10,30,16,04,6.90
2006,10,30,16,05,6.90
2006,10,30,16,06,7.00
2006,10,30,16,07,7.00
2006,10,30,16,08,7.00
2006,10,30,16,09,7.10
2006,10,30,16,10,7.10
2006,10,30,16,11,7.10
2006,10,30,16,12,7.10
2006,10,30,16,13,7.10
2006,10,30,16,14,7.10
2006,10,30,16,15,7.10
2006,10,30,16,16,7.20
2006,10,30,16,17,7.20
2006,10,30,16,18,7.20
2006,10,30,16,19,7.20
2006,10,30,16,20,7.00
2006,10,30,16,21,7.00
2006,10,30,16,22,6.90
2006,10,30,16,23,6.90
2006,10,30,16,24,6.80
2006,10,30,16,25,6.80
2006,10,30,16,26,6.80
2006,10,30,16,27,6.80
2006,10,30,16,28,6.80
2006,10,30,16,29,6.80
2006,10,30,16,30,6.70
2006,10,30,16,31,6.70
2006,10,30,16,32,6.70
2006,10,30,16,33,6.60
2006,10,30,16,34,6.60
2006,10,30,16,35,6.60
2006,10,30,16,36,6.50
2006,10,30,16,37,6.40
2006,10,30,16,38,6.40
2006,10,30,16,39,6.30
2006,10,30,16,40,6.20
2006,10,30,16,41,6.20
2006,10,30,16,42,6.10
2006,10,30,16,43,6.00
2006,10,30,16,44,5.90
2006,10,30,16,45,5.90
2006,10,30,16,46,5.80
2006,10,30,16,47,5.70
2006,10,30,16,48,5.60
2006,10,30,16,49,5.60
2006,10,30,16,50,5.50
2006,10,30,16,51,5.40
2006,10,30,16,52,5.30
2006,10,30,16,53,5.30
2006,10,30,16,54,5.30
2006,10,30,16,55,5.30
2006,10,30,16,56,5.20
2006,10,30,16,57,5.20
2006,10,30,16,58,5.10
2006,10,30,16,59,5.10
2006,10,30,17,00,5.10
2006,10,30,17,01,5.00
2006,10,30,17,02,4.90
2006,10,30,17,03,4.80
2006,10,30,17,04,4.70
2006,10,30,17,05,4.70
2006,10,30,17,06,4.60
2006,10,30,17,07,4.60
2006,10,30,17,08,4.50
2006,10,30,17,09,4.50
2006,10,30,17,10,4.50
2006,10,30,17,11,4.40
2006,10,30,17,12,4.40
2006,10,30,17,13,4.40
2006,10,30,17,14,4.30
2006,10,30,17,15,4.30
2006,10,30,17,16,4.30
2006,10,30,17,17,4.20
2006,10,30,17,18,4.20
2006,10,30,17,19,4.20
2006,10,30,17,20,4.20
2006,10,30,17,21,4.10
2006,10,30,17,22,4.00
2006,10,30,17,23,4.00
2006,10,30,17,24,3.90
2006,10,30,17,25,3.90
2006,10,30,17,26,3.80
2006,10,30,17,27,3.80
2006,10,30,17,28,3.80
2006,10,30,17,29,3.70
2006,10,30,17,30,3.60
2006,10,30,17,31,3.60
2006,10,30,17,32,3.50
2006,10,30,17,33,3.40
2006,10,30,17,34,3.40
2006,10,30,17,35,3.30
2006,10,30,17,36,3.30
2006,10,30,17,37,3.30
2006,10,30,17,38,3.20
2006,10,30,17,39,3.20
2006,10,30,17,40,3.10
2006,10,30,17,41,3.10
2006,10,30,17,42,3.10
2006,10,30,17,43,3.10
2006,10,30,17,44,3.00
2006,10,30,17,45,2.90
2006,10,30,17,46,2.90
2006,10,30,17,47,2.90
2006,10,30,17,48,2.90
2006,10,30,17,49,2.90
2006,10,30,17,50,2.90
2006,10,30,17,51,2.80
2006,10,30,17,52,2.80
2006,10,30,17,53,2.80
2006,10,30,17,54,2.70
2006,10,30,17,55,2.70
2006,10,30,17,56,2.70
2006,10,30,17,57,2.70
2006,10,30,17,58,2.70
2006,10,30,17,59,2.60
2006,10,30,18,00,2.60
2006,10,30,18,01,2.50
2006,10,30,18,02,2.50
2006,10,30,18,03,2.40
2006,10,30,18,04,2.40
2006,10,30,18,05,2.30
2006,10,30,18,06,2.20